Time,TemperatureF,DewpointF,PressureIn,WindDirection,WindDirectionDegrees,WindSpeedMPH,WindSpeedGustMPH,Humidity,HourlyPrecipIn,Conditions,Clouds,dailyrainin,SoftwareType,DateUTC
2013-06-03 00:00:00,73.4,68.7,29.99,SSE,158,0.0,0.0,85,0.13,,,0.00,WUHU216HW,2013-06-03 04:00:00,
2013-06-03 00:01:00,73.4,68.7,29.99,SSE,158,0.0,0.0,85,0.13,,,0.00,WUHU216HW,2013-06-03 04:01:00,
2013-06-03 00:06:00,73.4,68.7,29.99,SSE,158,0.0,0.0,85,0.13,,,0.00,WUHU216HW,2013-06-03 04:06:00,
2013-06-03 00:30:00,73.3,68.5,29.99,SW,225,0.0,0.0,85,0.04,,,0.00,WUHU216HW,2013-06-03 04:30:00,
2013-06-03 00:35:00,73.3,68.5,29.99,SW,225,0.0,0.0,85,0.04,,,0.00,WUHU216HW,2013-06-03 04:35:00,
2013-06-03 01:00:00,72.9,68.1,29.97,NNW,338,0.7,0.7,85,0.03,,,0.01,WUHU216HW,2013-06-03 05:00:00,
2013-06-03 01:05:00,72.9,68.1,29.97,NNW,338,0.7,0.7,85,0.03,,,0.01,WUHU216HW,2013-06-03 05:05:00,
2013-06-03 01:30:00,72.5,68.1,29.96,ESE,113,0.4,0.4,86,0.03,,,0.03,WUHU216HW,2013-06-03 05:30:00,
2013-06-03 01:35:00,72.5,68.1,29.96,ESE,113,0.4,0.4,86,0.03,,,0.03,WUHU216HW,2013-06-03 05:35:00,
2013-06-03 02:00:00,72.4,68.3,29.95,SE,135,2.7,2.7,87,0.06,,,0.04,WUHU216HW,2013-06-03 06:00:00,
2013-06-03 02:05:00,72.4,68.3,29.95,SE,135,2.7,2.7,87,0.06,,,0.04,WUHU216HW,2013-06-03 06:05:00,
2013-06-03 02:30:00,72.2,68.4,29.94,NNE,23,1.1,1.1,88,0.07,,,0.09,WUHU216HW,2013-06-03 06:30:00,
2013-06-03 02:35:00,72.2,68.4,29.94,NNE,23,1.1,1.1,88,0.07,,,0.09,WUHU216HW,2013-06-03 06:35:00,
2013-06-03 03:00:00,72.0,68.2,29.93,SSW,203,0.4,0.4,88,0.02,,,0.12,WUHU216HW,2013-06-03 07:00:00,
2013-06-03 03:05:00,72.0,68.2,29.93,SSW,203,0.4,0.4,88,0.02,,,0.12,WUHU216HW,2013-06-03 07:05:00,
2013-06-03 03:30:00,72.0,68.2,29.92,East,90,0.4,0.4,88,0.00,,,0.12,WUHU216HW,2013-06-03 07:30:00,
2013-06-03 03:35:00,72.0,68.2,29.92,East,90,0.4,0.4,88,0.00,,,0.12,WUHU216HW,2013-06-03 07:35:00,
2013-06-03 04:00:00,71.8,68.0,29.91,WSW,248,0.2,0.2,88,0.00,,,0.12,WUHU216HW,2013-06-03 08:00:00,
2013-06-03 04:05:00,71.8,68.0,29.91,WSW,248,0.2,0.2,88,0.00,,,0.12,WUHU216HW,2013-06-03 08:05:00,
2013-06-03 04:30:00,71.5,67.7,29.92,North,0,0.0,0.0,88,0.00,,,0.12,WUHU216HW,2013-06-03 08:30:00,
2013-06-03 04:35:00,71.5,67.7,29.92,North,0,0.0,0.0,88,0.00,,,0.12,WUHU216HW,2013-06-03 08:35:00,
2013-06-03 05:00:00,71.3,67.2,29.92,SW,225,0.2,0.2,87,0.00,,,0.12,WUHU216HW,2013-06-03 09:00:00,
2013-06-03 05:05:00,71.3,67.2,29.92,SW,225,0.2,0.2,87,0.00,,,0.12,WUHU216HW,2013-06-03 09:05:00,
2013-06-03 05:30:00,71.1,67.1,29.92,NNW,338,0.0,0.0,87,0.00,,,0.12,WUHU216HW,2013-06-03 09:30:00,
2013-06-03 05:35:00,71.1,67.1,29.92,NNW,338,0.0,0.0,87,0.00,,,0.12,WUHU216HW,2013-06-03 09:35:00,
2013-06-03 06:00:00,71.1,67.3,29.92,WNW,293,0.0,0.0,88,0.01,,,0.12,WUHU216HW,2013-06-03 10:00:00,
2013-06-03 06:05:00,71.1,67.3,29.92,WNW,293,0.0,0.0,88,0.01,,,0.12,WUHU216HW,2013-06-03 10:05:00,
2013-06-03 06:30:00,70.9,67.1,29.93,SSE,158,0.2,0.2,88,0.12,,,0.13,WUHU216HW,2013-06-03 10:30:00,
2013-06-03 06:35:00,70.9,67.1,29.93,SSE,158,0.2,0.2,88,0.12,,,0.13,WUHU216HW,2013-06-03 10:35:00,
2013-06-03 07:00:00,70.9,67.5,29.93,South,180,0.4,0.4,89,0.20,,,0.24,WUHU216HW,2013-06-03 11:00:00,
2013-06-03 07:05:00,70.9,67.5,29.93,South,180,0.4,0.4,89,0.20,,,0.24,WUHU216HW,2013-06-03 11:05:00,
2013-06-03 07:30:00,70.9,67.5,29.93,NNW,338,0.0,0.0,89,0.11,,,0.33,WUHU216HW,2013-06-03 11:30:00,
2013-06-03 07:35:00,70.9,67.5,29.93,NNW,338,0.0,0.0,89,0.11,,,0.33,WUHU216HW,2013-06-03 11:35:00,
2013-06-03 08:00:00,71.1,67.7,29.93,NNE,23,0.2,0.2,89,0.05,,,0.36,WUHU216HW,2013-06-03 12:00:00,
2013-06-03 08:05:00,71.1,67.7,29.93,NNE,23,0.2,0.2,89,0.05,,,0.36,WUHU216HW,2013-06-03 12:05:00,
2013-06-03 08:30:00,71.5,68.0,29.94,East,90,0.0,0.0,89,0.02,,,0.38,WUHU216HW,2013-06-03 12:30:00,
2013-06-03 08:35:00,71.5,68.0,29.94,East,90,0.0,0.0,89,0.02,,,0.38,WUHU216HW,2013-06-03 12:35:00,
2013-06-03 09:00:00,71.6,68.2,29.93,ENE,68,0.0,0.0,89,0.02,,,0.38,WUHU216HW,2013-06-03 13:00:00,
2013-06-03 09:05:00,71.6,68.2,29.93,ENE,68,0.0,0.0,89,0.02,,,0.38,WUHU216HW,2013-06-03 13:05:00,
2013-06-03 09:30:00,71.8,68.4,29.93,NW,315,0.0,0.0,89,0.02,,,0.40,WUHU216HW,2013-06-03 13:30:00,
2013-06-03 09:35:00,71.8,68.4,29.93,NW,315,0.0,0.0,89,0.02,,,0.40,WUHU216HW,2013-06-03 13:35:00,
2013-06-03 10:00:00,72.2,68.8,29.93,North,0,0.0,0.0,89,0.00,,,0.40,WUHU216HW,2013-06-03 14:00:00,
2013-06-03 10:05:00,72.2,68.8,29.93,North,0,0.0,0.0,89,0.00,,,0.40,WUHU216HW,2013-06-03 14:05:00,
2013-06-03 10:30:00,73.1,70.0,29.93,NNW,338,0.9,0.9,90,0.00,,,0.40,WUHU216HW,2013-06-03 14:30:00,
2013-06-03 10:35:00,73.1,70.0,29.93,NNW,338,0.9,0.9,90,0.00,,,0.40,WUHU216HW,2013-06-03 14:35:00,
2013-06-03 11:00:00,74.2,70.7,29.93,NNW,338,0.0,0.0,89,0.00,,,0.40,WUHU216HW,2013-06-03 15:00:00,
2013-06-03 11:05:00,74.2,70.7,29.93,NNW,338,0.0,0.0,89,0.00,,,0.40,WUHU216HW,2013-06-03 15:05:00,
2013-06-03 11:30:00,74.7,70.7,29.94,West,270,0.0,0.0,87,0.00,,,0.40,WUHU216HW,2013-06-03 15:30:00,
2013-06-03 11:35:00,74.7,70.7,29.94,West,270,0.0,0.0,87,0.00,,,0.40,WUHU216HW,2013-06-03 15:35:00,
2013-06-03 12:00:00,75.4,71.4,29.93,West,270,0.2,0.2,87,0.00,,,0.40,WUHU216HW,2013-06-03 16:00:00,
2013-06-03 12:05:00,75.4,71.4,29.93,West,270,0.2,0.2,87,0.00,,,0.40,WUHU216HW,2013-06-03 16:05:00,
2013-06-03 12:30:00,77.0,71.5,29.92,North,0,0.2,0.2,83,0.00,,,0.40,WUHU216HW,2013-06-03 16:30:00,
2013-06-03 12:35:00,77.0,71.5,29.92,North,0,0.2,0.2,83,0.00,,,0.40,WUHU216HW,2013-06-03 16:35:00,
2013-06-03 13:00:00,77.4,71.5,29.91,North,0,0.2,0.2,82,0.00,,,0.40,WUHU216HW,2013-06-03 17:00:00,
2013-06-03 13:05:00,77.4,71.5,29.91,North,0,0.2,0.2,82,0.00,,,0.40,WUHU216HW,2013-06-03 17:05:00,
2013-06-03 13:30:00,78.1,71.8,29.91,WNW,293,0.9,0.9,81,0.00,,,0.40,WUHU216HW,2013-06-03 17:30:00,
2013-06-03 13:35:00,78.1,71.8,29.91,WNW,293,0.9,0.9,81,0.00,,,0.40,WUHU216HW,2013-06-03 17:35:00,
2013-06-03 14:00:00,79.0,72.0,29.91,NE,45,0.9,0.9,79,0.00,,,0.40,WUHU216HW,2013-06-03 18:00:00,
2013-06-03 14:05:00,79.0,72.0,29.91,NE,45,0.9,0.9,79,0.00,,,0.40,WUHU216HW,2013-06-03 18:05:00,
2013-06-03 14:30:00,79.6,72.1,29.91,North,0,0.4,0.4,78,0.00,,,0.40,WUHU216HW,2013-06-03 18:30:00,
2013-06-03 14:35:00,79.6,72.1,29.91,North,0,0.4,0.4,78,0.00,,,0.40,WUHU216HW,2013-06-03 18:35:00,
2013-06-03 15:00:00,80.3,72.5,29.91,South,180,0.9,0.9,77,0.00,,,0.40,WUHU216HW,2013-06-03 19:00:00,
2013-06-03 15:05:00,80.3,72.5,29.91,South,180,0.9,0.9,77,0.00,,,0.40,WUHU216HW,2013-06-03 19:05:00,
2013-06-03 15:30:00,79.9,72.1,29.90,NE,45,0.9,0.9,77,0.00,,,0.40,WUHU216HW,2013-06-03 19:30:00,
2013-06-03 15:35:00,79.9,72.1,29.90,NE,45,0.9,0.9,77,0.00,,,0.40,WUHU216HW,2013-06-03 19:35:00,
2013-06-03 16:00:00,80.3,71.6,29.88,SSW,203,2.0,2.0,75,0.00,,,0.40,WUHU216HW,2013-06-03 20:00:00,
2013-06-03 16:05:00,80.3,71.6,29.88,SSW,203,2.0,2.0,75,0.00,,,0.40,WUHU216HW,2013-06-03 20:05:00,
2013-06-03 16:30:00,80.5,71.8,29.87,South,180,0.0,0.0,75,0.00,,,0.40,WUHU216HW,2013-06-03 20:30:00,
2013-06-03 16:35:00,80.5,71.8,29.87,South,180,0.0,0.0,75,0.00,,,0.40,WUHU216HW,2013-06-03 20:35:00,
2013-06-03 17:00:00,81.2,71.7,29.88,SW,225,0.2,0.2,73,0.00,,,0.40,WUHU216HW,2013-06-03 21:00:00,
2013-06-03 17:05:00,81.2,71.7,29.88,SW,225,0.2,0.2,73,0.00,,,0.40,WUHU216HW,2013-06-03 21:05:00,
2013-06-03 17:30:00,82.3,71.5,29.88,SE,135,0.0,0.0,70,0.00,,,0.40,WUHU216HW,2013-06-03 21:30:00,
2013-06-03 17:35:00,82.3,71.5,29.88,SE,135,0.0,0.0,70,0.00,,,0.40,WUHU216HW,2013-06-03 21:35:00,
2013-06-03 18:00:00,79.2,68.9,29.90,WSW,248,2.0,2.0,71,0.00,,,0.40,WUHU216HW,2013-06-03 22:00:00,
2013-06-03 18:05:00,79.2,68.9,29.90,WSW,248,2.0,2.0,71,0.00,,,0.40,WUHU216HW,2013-06-03 22:05:00,
2013-06-03 18:30:00,74.5,67.2,29.89,SW,225,0.7,0.7,78,0.15,,,0.40,WUHU216HW,2013-06-03 22:30:00,
2013-06-03 18:35:00,74.5,67.2,29.89,SW,225,0.7,0.7,78,0.15,,,0.40,WUHU216HW,2013-06-03 22:35:00,
2013-06-03 19:00:00,72.4,65.9,29.90,ESE,113,0.9,0.9,80,0.17,,,0.55,WUHU216HW,2013-06-03 23:00:00,
2013-06-03 19:05:00,72.4,65.9,29.90,ESE,113,0.9,0.9,80,0.17,,,0.55,WUHU216HW,2013-06-03 23:05:00,
2013-06-03 19:30:00,72.2,66.4,29.89,SW,225,0.4,0.4,82,0.03,,,0.57,WUHU216HW,2013-06-03 23:30:00,
2013-06-03 19:35:00,72.2,66.4,29.89,SW,225,0.4,0.4,82,0.03,,,0.57,WUHU216HW,2013-06-03 23:35:00,
2013-06-03 20:00:00,72.0,66.5,29.91,SSW,203,0.0,0.0,83,0.01,,,0.59,WUHU216HW,2013-06-04 00:00:00,
2013-06-03 20:05:00,72.0,66.5,29.91,SSW,203,0.0,0.0,83,0.01,,,0.59,WUHU216HW,2013-06-04 00:05:00,
2013-06-03 20:30:00,71.1,66.0,29.90,West,270,0.0,0.0,84,0.00,,,0.59,WUHU216HW,2013-06-04 00:30:00,
2013-06-03 20:35:00,71.1,66.0,29.90,West,270,0.0,0.0,84,0.00,,,0.59,WUHU216HW,2013-06-04 00:35:00,
2013-06-03 21:00:00,70.7,65.6,29.92,NW,315,0.0,0.0,84,0.00,,,0.59,WUHU216HW,2013-06-04 01:00:00,
2013-06-03 21:05:00,70.7,65.6,29.92,NW,315,0.0,0.0,84,0.00,,,0.59,WUHU216HW,2013-06-04 01:05:00,
2013-06-03 21:30:00,70.2,65.4,29.94,SE,135,0.4,0.4,85,0.00,,,0.59,WUHU216HW,2013-06-04 01:30:00,
2013-06-03 21:35:00,70.2,65.4,29.94,SE,135,0.4,0.4,85,0.00,,,0.59,WUHU216HW,2013-06-04 01:35:00,
2013-06-03 22:00:00,69.7,65.3,29.96,SSW,203,0.7,0.7,86,0.00,,,0.59,WUHU216HW,2013-06-04 02:00:00,
2013-06-03 22:05:00,69.7,65.3,29.96,SSW,203,0.7,0.7,86,0.00,,,0.59,WUHU216HW,2013-06-04 02:05:00,
2013-06-03 22:30:00,69.7,65.3,29.97,SSW,203,0.0,0.0,86,0.00,,,0.59,WUHU216HW,2013-06-04 02:30:00,
2013-06-03 22:35:00,69.7,65.3,29.97,SSW,203,0.0,0.0,86,0.00,,,0.59,WUHU216HW,2013-06-04 02:35:00,
2013-06-03 23:00:00,69.5,65.1,29.97,SW,225,0.0,0.0,86,0.00,,,0.59,WUHU216HW,2013-06-04 03:00:00,
2013-06-03 23:05:00,69.5,65.1,29.97,SW,225,0.0,0.0,86,0.00,,,0.59,WUHU216HW,2013-06-04 03:05:00,
2013-06-03 23:30:00,68.9,64.5,29.98,SSW,203,0.0,0.0,86,0.00,,,0.59,WUHU216HW,2013-06-04 03:30:00,
2013-06-03 23:35:00,68.9,64.5,29.98,SSW,203,0.0,0.0,86,0.00,,,0.59,WUHU216HW,2013-06-04 03:35:00,